User: anonymous   Login
Location: ????????
(38.4362°N, 22.8767°E)
Time: 01:52:32
(UTC+00:00)
Language:

GEOS 3 Rocket - Orbit

View from above orbital plane
View from above orbital plane
View from above satellite
View from above satellite

Ground track
Ground track

The orbit data is extracted from the following two-line orbital elements,

1 07735U 75027B   24167.62046031  .00000042  00000-0  93211-4 0  9991
2 07735 114.9744  65.7573 0035958 185.3111 174.7592 14.25098563554201
Epoch (UTC): 15 June 2024 14:53:27
Eccentricity: 0.0035958
inclination: 114.9744°
perigee height: 782 km
apogee height: 834 km
right ascension of ascending node: 65.7573°
argument of perigee: 185.3111°
revolutions per day: 14.25098563
mean anomaly at epoch: 174.7592°
orbit number at epoch: 55420

The dashed part of the orbit path shows where the satellite is in the earth's shadow,  

DLR